| time (UTC) | temp C | wind direction | speed KPH | gust KPH | rain 1hr cm | rain 24hr cm | rain mn cm | humidity % | barometer mb |
| 20260505163056 | 22 | 241 | 17.7 | 24.1 | 0.00 | 0.00 | 0.00 | 81 | 983.3 |
| 20260505161603 | 22 | 244 | 17.7 | 27.4 | 0.00 | 0.00 | 0.00 | 81 | 983.4 |
| 20260505153023 | 22 | 250 | 22.5 | 37.0 | 0.00 | 0.00 | 0.00 | 81 | 983.2 |
| 20260505151519 | 22 | 244 | 19.3 | 29.0 | 0.00 | 0.00 | 0.00 | 80 | 983.1 |
| 20260505124547 | 21 | 232 | 12.9 | 24.1 | 0.00 | 0.00 | 0.00 | 78 | 982.3 |
| 20260505123105 | 21 | 226 | 12.9 | 22.5 | 0.00 | 0.00 | 0.00 | 79 | 982.0 |
| 20260505121528 | 21 | 247 | 9.7 | 17.7 | 0.00 | 0.00 | 0.00 | 79 | 981.7 |
| 20260505120030 | 20 | 244 | 11.3 | 24.1 | 0.00 | 0.00 | 0.00 | 79 | 981.6 |
| 20260505114510 | 20 | 224 | 11.3 | 24.1 | 0.00 | 0.00 | 0.00 | 79 | 981.5 |
| 20260505113009 | 20 | 229 | 12.9 | 22.5 | 0.00 | 0.00 | 0.00 | 79 | 981.5 |
| 20260505111604 | 20 | 217 | 14.5 | 30.6 | 0.00 | 0.00 | 0.00 | 80 | 981.4 |
| 20260505101510 | 20 | 225 | 12.9 | 22.5 | 0.00 | 0.00 | 0.00 | 81 | 981.5 |
| 20260505100009 | 20 | 219 | 12.9 | 29.0 | 0.00 | 0.00 | 0.00 | 81 | 981.7 |
| 20260505094551 | 21 | 237 | 12.9 | 24.1 | 0.00 | 0.00 | 0.00 | 80 | 981.8 |
| 20260505093050 | 21 | 213 | 12.9 | 27.4 | 0.00 | 0.00 | 0.00 | 80 | 981.8 |
| 20260505091534 | 21 | 232 | 14.5 | 27.4 | 0.00 | 0.00 | 0.00 | 80 | 982.0 |
| 20260505090034 | 21 | 240 | 17.7 | 32.2 | 0.00 | 0.00 | 0.00 | 80 | 982.1 |
| 20260505084517 | 21 | 215 | 14.5 | 25.7 | 0.00 | 0.00 | 0.00 | 80 | 982.1 |
| 20260505083013 | 21 | 204 | 19.3 | 32.2 | 0.00 | 0.00 | 0.00 | 80 | 982.2 |
| 20260505081553 | 21 | 248 | 20.9 | 29.0 | 0.00 | 0.00 | 0.00 | 81 | 982.5 |
| 20260505080045 | 21 | 240 | 16.1 | 29.0 | 0.00 | 0.00 | 0.00 | 81 | 982.4 |
| 20260505074526 | 21 | 241 | 16.1 | 30.6 | 0.00 | 0.00 | 0.00 | 81 | 982.6 |
| 20260505073023 | 21 | 249 | 12.9 | 37.0 | 0.00 | 0.00 | 0.00 | 81 | 982.7 |
| 20260505071503 | 21 | 188 | 16.1 | 30.6 | 0.00 | 0.00 | 0.00 | 81 | 982.9 |
| 20260505070002 | 21 | 223 | 17.7 | 38.6 | 0.00 | 0.00 | 0.00 | 80 | 983.0 |
| 20260505064555 | 20 | 216 | 17.7 | 30.6 | 0.00 | 0.00 | 0.00 | 80 | 983.0 |
| 20260505063043 | 20 | 224 | 17.7 | 24.1 | 0.00 | 0.00 | 0.00 | 80 | 983.2 |
| 20260505061529 | 20 | 218 | 12.9 | 27.4 | 0.00 | 0.00 | 0.00 | 81 | 983.5 |
| 20260505060021 | 20 | 222 | 17.7 | 30.6 | 0.00 | 0.00 | 0.00 | 80 | 983.5 |
| 20260505054605 | 20 | 237 | 14.5 | 30.6 | 0.00 | 0.00 | 0.00 | 80 | 983.5 |
| 20260505053110 | 20 | 213 | 16.1 | 24.1 | 0.00 | 0.00 | 0.00 | 80 | 983.4 |
| 20260505051537 | 20 | 223 | 12.9 | 20.9 | 0.00 | 0.00 | 0.00 | 81 | 983.4 |
| 20260505041611 | 21 | 217 | 11.3 | 17.7 | 0.00 | 0.00 | 0.00 | 82 | 983.4 |
| 20260505040049 | 21 | 211 | 12.9 | 22.5 | 0.00 | 0.00 | 0.00 | 82 | 983.6 |
| 20260505034534 | 21 | 213 | 11.3 | 17.7 | 0.00 | 0.00 | 0.00 | 82 | 983.6 |
| 20260505033031 | 21 | 196 | 11.3 | 22.5 | 0.00 | 0.00 | 0.00 | 82 | 983.5 |
| 20260505031509 | 22 | 198 | 11.3 | 17.7 | 0.00 | 0.00 | 0.00 | 81 | 983.4 |
| 20260505030009 | 22 | 196 | 11.3 | 19.3 | 0.00 | 0.00 | 0.00 | 81 | 983.4 |
| 20260505024549 | 22 | 207 | 11.3 | 27.4 | 0.00 | 0.00 | 0.00 | 81 | 983.4 |
| 20260505023049 | 22 | 200 | 11.3 | 19.3 | 0.00 | 0.00 | 0.00 | 80 | 983.3 |
| 20260505021530 | 22 | 205 | 9.7 | 16.1 | 0.00 | 0.00 | 0.00 | 80 | 983.2 |
| 20260505020026 | 22 | 217 | 9.7 | 16.1 | 0.00 | 0.00 | 0.00 | 79 | 983.0 |
| 20260505014507 | 22 | 208 | 9.7 | 16.1 | 0.00 | 0.00 | 0.00 | 78 | 983.0 |
| 20260505013008 | 23 | 195 | 8.0 | 14.5 | 0.00 | 0.00 | 0.00 | 76 | 983.1 |
| 20260505011543 | 23 | 198 | 9.7 | 16.1 | 0.00 | 0.00 | 0.00 | 75 | 983.0 |
| 20260505010044 | 23 | 205 | 9.7 | 16.1 | 0.00 | 0.00 | 0.00 | 73 | 983.1 |
| 20260505004522 | 24 | 212 | 11.3 | 20.9 | 0.00 | 0.00 | 0.00 | 72 | 982.9 |
| 20260505003017 | 24 | 209 | 9.7 | 16.1 | 0.00 | 0.00 | 0.00 | 71 | 983.1 |
| 20260505001558 | 25 | 210 | 11.3 | 22.5 | 0.00 | 0.00 | 0.00 | 69 | 983.0 |
| 20260505000106 | 25 | 187 | 14.5 | 30.6 | 0.00 | 0.00 | 0.00 | 68 | 982.9 |
| 20260504234534 | 26 | 200 | 16.1 | 30.6 | 0.00 | 0.00 | 0.00 | 67 | 982.9 |
| 20260504233035 | 26 | 198 | 17.7 | 27.4 | 0.00 | 0.00 | 0.00 | 66 | 983.3 |
| 20260504231527 | 26 | 234 | 16.1 | 32.2 | 0.00 | 0.00 | 0.00 | 66 | 983.3 |
| 20260504230018 | 26 | 210 | 12.9 | 27.4 | 0.00 | 0.00 | 0.00 | 66 | 983.4 |
| 20260504224514 | 26 | 215 | 19.3 | 32.2 | 0.00 | 0.00 | 0.00 | 65 | 983.6 |
| 20260504223011 | 26 | 223 | 12.9 | 40.2 | 0.00 | 0.00 | 0.00 | 65 | 983.9 |
| 20260504221509 | 26 | 212 | 16.1 | 29.0 | 0.00 | 0.00 | 0.00 | 65 | 984.0 |
| 20260504220013 | 26 | 216 | 14.5 | 29.0 | 0.00 | 0.00 | 0.00 | 65 | 984.1 |
| 20260504214509 | 26 | 209 | 14.5 | 29.0 | 0.00 | 0.00 | 0.00 | 65 | 984.0 |
| 20260504213009 | 26 | 174 | 16.1 | 32.2 | 0.00 | 0.00 | 0.00 | 65 | 984.3 |
| 20260504211550 | 26 | 226 | 17.7 | 35.4 | 0.00 | 0.00 | 0.00 | 64 | 984.6 |
| 20260504204524 | 26 | 203 | 16.1 | 32.2 | 0.00 | 0.00 | 0.00 | 64 | 985.2 |
| 20260504203030 | 26 | 194 | 16.1 | 25.7 | 0.00 | 0.00 | 0.00 | 65 | 985.5 |
| 20260504201502 | 26 | 198 | 12.9 | 30.6 | 0.00 | 0.00 | 0.00 | 67 | 985.7 |
| 20260504194600 | 25 | 222 | 19.3 | 33.8 | 0.00 | 0.00 | 0.00 | 65 | 986.4 |
| 20260504193037 | 25 | 221 | 22.5 | 30.6 | 0.00 | 0.00 | 0.00 | 67 | 986.5 |
| 20260504191517 | 25 | 209 | 19.3 | 27.4 | 0.00 | 0.00 | 0.00 | 67 | 986.8 |
| 20260504190014 | 24 | 227 | 16.1 | 27.4 | 0.00 | 0.00 | 0.00 | 70 | 987.0 |
| 20260504184559 | 24 | 202 | 17.7 | 25.7 | 0.00 | 0.00 | 0.00 | 69 | 987.2 |
| 20260504183056 | 23 | 236 | 17.7 | 35.4 | 0.00 | 0.00 | 0.00 | 69 | 987.3 |
| 20260504181542 | 23 | 247 | 17.7 | 30.6 | 0.00 | 0.00 | 0.00 | 71 | 987.5 |
| 20260504180048 | 23 | 200 | 19.3 | 30.6 | 0.00 | 0.00 | 0.00 | 69 | 987.9 |
| 20260504174513 | 23 | 232 | 19.3 | 30.6 | 0.00 | 0.00 | 0.00 | 70 | 988.0 |
| 20260504173016 | 23 | 244 | 20.9 | 32.2 | 0.00 | 0.00 | 0.00 | 70 | 988.2 |
| 20260504171612 | 22 | 257 | 19.3 | 30.6 | 0.00 | 0.00 | 0.00 | 71 | 988.5 |